[[{"header":{"parameterUnit":"m.s-1","parameterCategory":1,"la1":30.2991,"la2":30.254,"lo1":-89.0895,"lo2":-89.0444,"dy":0.0017,"dx":0.0017,"nx":28,"ny":28,"refTime":"2023-09-24T21:00:00:Z","depth":0,"parameterNumber":2,"parameterNumberName":"U-component_of_WINDS"},"data":[0,0,0,0,0,0,0,0,0,0,0,0,0,0,0,0,0,0,0,0,0,0,0,0,0,0,0,0,0,0,0,0,0,0,0,0,0,0,0,0,0,0,0,0,0,0,0,0,0,0,0,0,0,0,0,0,0,0,-1.7838,-1.7838,0,-1.7793,-1.7792,-1.7791,-1.7715,-1.7713,-1.7712,-1.771,-1.7664,-1.7664,-1.7665,0,0,0,0,0,0,0,0,0,0,0,0,0,-1.7861,-1.7861,-1.7839,-1.7838,-1.7837,-1.7793,-1.7792,-1.7791,-1.7715,-1.7713,-1.7711,-1.771,-1.7664,-1.7664,-1.7665,0,0,0,0,0,0,0,0,0,0,0,0,0,-1.7837,-1.7861,-1.7839,-1.7794,-1.7789,-1.7793,-1.7792,-1.7791,-1.7715,-1.7713,-1.7711,-1.7709,-1.7664,-1.7664,-1.7665,-1.7708,0,0,-1.7665,-1.7665,0,0,0,0,0,0,0,0,-1.7838,-1.7836,-1.7801,-1.7797,-1.7792,-1.7757,-1.7783,-1.7763,-1.7716,-1.7743,-1.771,-1.7708,-1.7697,-1.7694,-1.769,-1.7706,-1.7704,-1.7665,-1.7665,-1.7665,-1.7665,0,0,0,0,0,0,0,-1.784,-1.7838,-1.782,-1.7801,-1.7795,-1.7776,-1.777,-1.7779,-1.7733,-1.7741,-1.7735,-1.7731,-1.7694,-1.769,-1.7689,-1.7704,-1.7665,-1.7665,-1.7665,-1.7665,-1.7753,-1.7755,0,0,0,0,0,0,-1.7848,-1.7839,-1.7822,-1.7819,-1.781,-1.7778,-1.7771,-1.777,-1.7732,-1.7725,-1.7733,-1.7727,-1.7691,-1.7689,-1.7687,-1.7736,-1.7665,-1.7665,-1.7665,-1.7751,-1.7754,-1.7756,0,0,0,0,0,0,-1.7849,-1.7847,-1.7824,-1.7828,-1.7823,-1.7779,-1.7779,-1.7771,-1.7767,-1.7726,-1.7718,-1.7737,-1.7689,-1.7687,-1.7704,-1.7734,-1.7665,-1.7666,-1.7748,-1.7752,-1.7755,-1.7836,0,0,0,0,0,0,-1.785,-1.7848,-1.7864,-1.7829,-1.7823,-1.7841,-1.7781,-1.7771,-1.7767,-1.776,-1.7728,-1.7721,-1.7688,-1.7704,-1.7704,-1.7733,-1.7666,-1.7746,-1.775,-1.7754,-1.783,-1.7841,-1.7851,0,0,0,0,0,-1.7851,-1.7889,-1.7865,-1.7864,-1.7842,-1.7843,-1.784,-1.7801,-1.777,-1.7786,-1.776,-1.7722,-1.773,-1.7706,-1.7706,-1.7735,-1.7744,-1.7749,-1.7754,-1.7825,-1.7839,-1.7851,0,0,0,0,0,0,-1.793,-1.7883,-1.7857,-1.7884,-1.7868,-1.783,-1.7849,-1.7816,-1.7809,-1.7802,-1.7753,-1.7747,-1.7771,-1.7754,-1.7728,-1.7775,-1.7731,-1.7736,-1.7786,-1.7798,-1.7809,-1.7813,-1.7666,0,0,0,0,0,-1.795,-1.7954,-1.7913,-1.7942,-1.7935,-1.7894,-1.7892,-1.7863,-1.7845,-1.7838,-1.7813,-1.7797,-1.7795,-1.7795,-1.7792,-1.7827,-1.7819,-1.7846,-1.7857,-1.7865,-1.7871,-1.7889,-1.7901,-1.7773,-1.7773,-1.7773,0,0,-1.7993,-1.7968,-1.7973,-1.7957,-1.7941,-1.7947,-1.7889,-1.7897,-1.7901,-1.7839,-1.7854,-1.7835,-1.7813,-1.784,-1.785,-1.7827,-1.7904,-1.7872,-1.7879,-1.788,-1.7895,-1.7907,-1.7918,-1.7776,-1.7776,-1.7775,0,0,-1.8073,-1.8055,-1.8076,-1.8061,-1.8038,-1.801,-1.8015,-1.7982,-1.7967,-1.7981,-1.7935,-1.7939,-1.7937,-1.7924,-1.7917,-1.7993,-1.7958,-1.7993,-1.8048,-1.8066,-1.8076,-1.8084,-1.8112,-1.8123,-1.7998,-1.7998,-1.7998,0,-1.813,-1.8136,-1.8092,-1.8103,-1.8098,-1.8041,-1.8063,-1.8051,-1.8028,-1.8025,-1.7999,-1.7996,-1.7978,-1.8001,-1.8019,-1.8015,-1.802,-1.7997,-1.8078,-1.8086,-1.8093,-1.812,-1.813,-1.8003,-1.8002,-1.8002,-1.8001,0,-1.8207,-1.8212,-1.8232,-1.8211,-1.8208,-1.8225,-1.8183,-1.8185,-1.8155,-1.813,-1.8145,-1.8121,-1.8112,-1.8115,-1.8086,-1.8133,-1.812,-1.8086,-1.8041,-1.8111,-1.8135,-1.8144,-1.8009,-1.8007,-1.8006,-1.8005,0,0,-1.8337,-1.8291,-1.8299,-1.8289,-1.8259,-1.8262,-1.8276,-1.8267,-1.827,-1.8255,-1.8267,-1.8266,-1.8235,-1.8228,-1.8197,-1.8212,-1.8275,-1.8177,-1.8176,-1.8197,-1.8326,-1.8353,-1.8365,-1.8251,-1.8252,-1.8254,-1.8329,0,-1.8413,-1.8435,-1.8395,-1.8426,-1.8431,-1.8377,-1.8389,-1.8372,-1.8349,-1.8349,-1.8323,-1.8325,-1.8283,-1.8278,-1.8291,-1.8265,-1.83,-1.8258,-1.8262,-1.8262,-1.8271,-1.8378,-1.8406,-1.8478,-1.8338,-1.8339,-1.834,0,-1.8505,-1.8495,-1.8527,-1.8494,-1.8495,-1.8507,-1.8495,-1.8496,-1.8475,-1.8457,-1.8449,-1.8413,-1.8424,-1.8379,-1.8395,-1.8368,-1.8366,-1.8354,-1.8355,-1.8356,-1.8307,-1.8382,-1.8499,-1.8511,-1.8354,-1.8353,-1.8352,0,-1.8599,-1.8593,-1.8611,-1.8604,-1.8566,-1.8576,-1.8561,-1.8538,-1.8535,-1.8525,-1.8522,-1.8514,-1.851,-1.8504,-1.8466,-1.8437,-1.8487,-1.8439,-1.8473,-1.8475,-1.8488,-1.8488,-1.8608,-1.8485,-1.8484,-1.8484,-1.8484,0,-1.8688,-1.871,-1.8653,-1.8665,-1.8688,-1.8641,-1.8665,-1.8645,-1.8625,-1.8632,-1.8583,-1.8591,-1.854,-1.8542,-1.8512,-1.8531,-1.8529,-1.8515,-1.8507,-1.8521,-1.8523,-1.852,-1.8515,-1.8487,-1.8486,-1.8486,-1.8485,0,-1.8798,-1.876,-1.8777,-1.874,-1.8731,-1.875,-1.8718,-1.8727,-1.87,-1.871,-1.8709,-1.8667,-1.8667,-1.8629,-1.862,-1.86,-1.8632,-1.8614,-1.8639,-1.8634,-1.8672,-1.8669,-1.8796,-1.8811,-1.8677,-1.8678,-1.8679,0,-1.8858,-1.8874,-1.8838,-1.8839,-1.8827,-1.8829,-1.8825,-1.878,-1.8778,-1.8756,-1.8768,-1.8764,-1.8758,-1.876,-1.873,-1.8723,-1.8706,-1.8751,-1.8705,-1.8718,-1.8708,-1.8709,-1.8711,-1.8761,-1.8763,-1.8764,-1.8765,0,-1.8971,-1.8951,-1.8948,-1.8938,-1.8936,-1.8926,-1.8913,-1.8917,-1.8867,-1.8868,-1.8867,-1.8863,-1.8854,-1.8851,-1.8838,-1.8823,-1.8787,-1.878,-1.8788,-1.8802,-1.8817,-1.8811,-1.8668,-1.8778,-1.8776,-1.8775,-1.8775,-1.8774,-1.9058,-1.907,-1.9047,-1.9045,-1.903,-1.902,-1.9027,-1.9001,-1.8999,-1.8989,-1.8961,-1.8965,-1.8944,-1.8924,-1.8911,-1.8914,-1.8891,-1.8902,-1.8905,-1.8909,-1.8917,-1.8815,-1.8911,-1.891,-1.891,-1.891,-1.8909,0,-1.9169,-1.9151,-1.915,-1.9134,-1.9132,-1.9097,-1.9081,-1.9082,-1.9086,-1.9069,-1.9065,-1.9064,-1.906,-1.9029,-1.9022,-1.903,-1.9013,-1.903,-1.9029,-1.9027,-1.8937,-1.8932,-1.9043,-1.9043,-1.9043,-1.9043,-1.9043,-1.9043,-1.9227,-1.9245,-1.9223,-1.9233,-1.9215,-1.9218,-1.9212,-1.9202,-1.9188,-1.919,-1.9186,-1.9166,-1.9143,-1.9134,-1.9129,-1.912,-1.912,-1.9143,-1.9128,-1.9046,-1.9033,-1.9021,-1.9015,-1.9143,-1.9143,-1.9218,-1.9218,-1.9219]},{"header":{"parameterUnit":"m.s-1","parameterCategory":1,"la1":30.2991,"la2":30.254,"lo1":-89.0895,"lo2":-89.0444,"dy":0.0017,"dx":0.0017,"nx":28,"ny":28,"refTime":"2023-09-24T21:00:00:Z","depth":0,"parameterNumber":3,"parameterNumberName":"V-component_of_WINDS"},"data":[0,0,0,0,0,0,0,0,0,0,0,0,0,0,0,0,0,0,0,0,0,0,0,0,0,0,0,0,0,0,0,0,0,0,0,0,0,0,0,0,0,0,0,0,0,0,0,0,0,0,0,0,0,0,0,0,0,0,-0.2785,-0.2786,0,-0.2863,-0.2864,-0.2865,-0.2849,-0.2847,-0.2846,-0.2844,-0.2927,-0.293,-0.2934,0,0,0,0,0,0,0,0,0,0,0,0,0,-0.2627,-0.263,-0.2785,-0.2786,-0.2787,-0.2863,-0.2864,-0.2865,-0.2849,-0.2847,-0.2845,-0.2844,-0.2925,-0.293,-0.2934,0,0,0,0,0,0,0,0,0,0,0,0,0,-0.2699,-0.2631,-0.2785,-0.2788,-0.2789,-0.2862,-0.2864,-0.2865,-0.2849,-0.2847,-0.2845,-0.2843,-0.2924,-0.2929,-0.2934,-0.301,0,0,-0.2951,-0.2953,0,0,0,0,0,0,0,0,-0.2695,-0.2705,-0.2787,-0.2788,-0.2789,-0.2844,-0.2838,-0.2914,-0.285,-0.2827,-0.2844,-0.2842,-0.2901,-0.2908,-0.2927,-0.3014,-0.3018,-0.2951,-0.2954,-0.2957,-0.2958,0,0,0,0,0,0,0,-0.269,-0.2702,-0.2816,-0.2788,-0.279,-0.2787,-0.2795,-0.2852,-0.2875,-0.2828,-0.2827,-0.2837,-0.2901,-0.2922,-0.2929,-0.3019,-0.2951,-0.2956,-0.2959,-0.2961,-0.3173,-0.3176,0,0,0,0,0,0,-0.2683,-0.2697,-0.2814,-0.2818,-0.2736,-0.2791,-0.28,-0.2829,-0.2874,-0.2879,-0.2838,-0.2836,-0.2914,-0.2923,-0.2932,-0.3026,-0.2957,-0.2961,-0.2965,-0.3171,-0.3174,-0.3177,0,0,0,0,0,0,-0.268,-0.2694,-0.2811,-0.2758,-0.2772,-0.2796,-0.2828,-0.2831,-0.2852,-0.2882,-0.2886,-0.2856,-0.2913,-0.2925,-0.2991,-0.3028,-0.2964,-0.2969,-0.3168,-0.3172,-0.3175,-0.3213,0,0,0,0,0,0,-0.2676,-0.2693,-0.2721,-0.2758,-0.2775,-0.2868,-0.2831,-0.2834,-0.2861,-0.2858,-0.2899,-0.2904,-0.2912,-0.2983,-0.2996,-0.3035,-0.2973,-0.3165,-0.317,-0.3174,-0.3208,-0.3217,-0.3225,0,0,0,0,0,-0.267,-0.2729,-0.2723,-0.2737,-0.2811,-0.287,-0.288,-0.2887,-0.2864,-0.2894,-0.2913,-0.2903,-0.3021,-0.299,-0.3005,-0.3045,-0.3163,-0.3168,-0.3174,-0.3205,-0.3216,-0.3225,0,0,0,0,0,0,-0.2697,-0.2734,-0.2727,-0.28,-0.2832,-0.2867,-0.2905,-0.2898,-0.2938,-0.2934,-0.2942,-0.2951,-0.302,-0.3038,-0.3003,-0.3122,-0.3089,-0.3098,-0.3108,-0.3118,-0.3126,-0.3122,-0.2977,0,0,0,0,0,-0.2711,-0.2754,-0.2785,-0.2846,-0.2862,-0.288,-0.2906,-0.2909,-0.2943,-0.2957,-0.298,-0.3014,-0.3059,-0.3089,-0.3132,-0.321,-0.322,-0.3245,-0.3253,-0.326,-0.3268,-0.3313,-0.3325,-0.3195,-0.3195,-0.3195,0,0,-0.2741,-0.2767,-0.2794,-0.2852,-0.2877,-0.2924,-0.2892,-0.2942,-0.2977,-0.2965,-0.303,-0.3048,-0.3086,-0.3159,-0.3192,-0.3177,-0.3306,-0.3267,-0.3272,-0.3277,-0.332,-0.3332,-0.3343,-0.3199,-0.3198,-0.3197,0,0,-0.282,-0.2843,-0.2897,-0.2923,-0.2961,-0.2972,-0.2985,-0.3022,-0.3033,-0.3098,-0.309,-0.3132,-0.3208,-0.3237,-0.3261,-0.3351,-0.3344,-0.3364,-0.3409,-0.3452,-0.3462,-0.3472,-0.3506,-0.3518,-0.3372,-0.3372,-0.3372,0,-0.2854,-0.2922,-0.2927,-0.2978,-0.3005,-0.2993,-0.305,-0.3074,-0.3125,-0.3144,-0.3125,-0.3222,-0.3247,-0.3328,-0.335,-0.3369,-0.3385,-0.3361,-0.346,-0.347,-0.3478,-0.3511,-0.3524,-0.3374,-0.3374,-0.3374,-0.3374,0,-0.2963,-0.3011,-0.305,-0.3099,-0.3129,-0.3183,-0.3196,-0.3227,-0.3226,-0.324,-0.3307,-0.3336,-0.3386,-0.3404,-0.3405,-0.3485,-0.3475,-0.3458,-0.3426,-0.3493,-0.3525,-0.3537,-0.3378,-0.3377,-0.3376,-0.3376,0,0,-0.3064,-0.3113,-0.3128,-0.315,-0.3191,-0.3229,-0.3281,-0.3329,-0.3356,-0.3391,-0.3437,-0.3502,-0.3487,-0.3515,-0.3518,-0.3555,-0.3627,-0.3534,-0.3535,-0.3553,-0.3721,-0.3736,-0.375,-0.3621,-0.3624,-0.3626,-0.3719,0,-0.3149,-0.3243,-0.3248,-0.3333,-0.3379,-0.3368,-0.3415,-0.3446,-0.346,-0.3501,-0.3516,-0.3564,-0.3538,-0.3555,-0.3592,-0.3611,-0.3662,-0.3604,-0.3667,-0.3669,-0.3661,-0.3766,-0.3782,-0.3868,-0.3731,-0.3733,-0.3734,0,-0.3262,-0.33,-0.339,-0.3425,-0.3444,-0.3486,-0.3531,-0.3569,-0.3604,-0.3611,-0.3642,-0.364,-0.3696,-0.3659,-0.3737,-0.3698,-0.3723,-0.3736,-0.374,-0.3749,-0.3708,-0.3781,-0.3896,-0.391,-0.3753,-0.3751,-0.375,0,-0.3331,-0.3404,-0.3467,-0.3486,-0.3528,-0.3558,-0.3577,-0.3609,-0.3638,-0.3676,-0.3695,-0.374,-0.3765,-0.38,-0.3811,-0.3783,-0.389,-0.3853,-0.39,-0.39,-0.3926,-0.3925,-0.405,-0.3937,-0.3936,-0.3936,-0.3936,0,-0.3428,-0.3484,-0.3499,-0.3539,-0.3602,-0.3607,-0.3669,-0.3686,-0.3715,-0.3758,-0.3751,-0.3792,-0.3802,-0.3845,-0.3853,-0.3918,-0.3929,-0.3938,-0.3941,-0.3941,-0.394,-0.3961,-0.3956,-0.394,-0.3939,-0.3938,-0.3938,0,-0.3517,-0.3528,-0.3598,-0.3631,-0.364,-0.3686,-0.3715,-0.3754,-0.3766,-0.3821,-0.3834,-0.3855,-0.3905,-0.3918,-0.3978,-0.3984,-0.4062,-0.4056,-0.405,-0.4051,-0.4098,-0.4095,-0.4243,-0.4264,-0.4134,-0.4135,-0.4136,0,-0.3579,-0.3622,-0.366,-0.3688,-0.3709,-0.3754,-0.3783,-0.3789,-0.382,-0.3862,-0.3897,-0.3946,-0.3986,-0.4068,-0.4089,-0.4135,-0.4133,-0.4182,-0.414,-0.414,-0.4138,-0.4136,-0.4142,-0.4191,-0.4192,-0.4193,-0.4194,0,-0.3691,-0.3694,-0.3736,-0.378,-0.3815,-0.385,-0.3883,-0.3907,-0.3918,-0.3953,-0.4004,-0.4036,-0.4097,-0.4147,-0.4194,-0.4214,-0.4208,-0.4206,-0.422,-0.4223,-0.4219,-0.4225,-0.4075,-0.4204,-0.4203,-0.4202,-0.4202,-0.4201,-0.3771,-0.3809,-0.3842,-0.3889,-0.3914,-0.3946,-0.3985,-0.4001,-0.4044,-0.4095,-0.4095,-0.4152,-0.4186,-0.4248,-0.427,-0.4316,-0.4301,-0.432,-0.4326,-0.4331,-0.4337,-0.4209,-0.4324,-0.4323,-0.4323,-0.4323,-0.4323,0,-0.3885,-0.3905,-0.3948,-0.3995,-0.4032,-0.4019,-0.4056,-0.4089,-0.4138,-0.417,-0.421,-0.4269,-0.4318,-0.4341,-0.439,-0.4421,-0.442,-0.4434,-0.4434,-0.4439,-0.4346,-0.4331,-0.4435,-0.4435,-0.4435,-0.4435,-0.4435,-0.4435,-0.3948,-0.4014,-0.4021,-0.4099,-0.4119,-0.4174,-0.4196,-0.4226,-0.4251,-0.4318,-0.4358,-0.4373,-0.4402,-0.4452,-0.4496,-0.4502,-0.4522,-0.4539,-0.4543,-0.4457,-0.4445,-0.4435,-0.442,-0.4542,-0.4542,-0.4633,-0.4634,-0.4635]}]]